Time,TemperatureF,DewpointF,PressureIn,WindDirection,WindDirectionDegrees,WindSpeedMPH,WindSpeedGustMPH,Humidity,HourlyPrecipIn,Conditions,Clouds,dailyrainin,SoftwareType,DateUTC
2013-07-24 00:00:00,70.9,66.8,29.76,WSW,254,0.0,1.0,87,0.00,,BKN037,0.00,VWS V14.01,2013-07-24 04:00:00,
2013-07-24 00:01:00,70.9,66.8,29.76,NW,312,1.0,2.0,87,0.00,,BKN042,0.00,VWS V14.01,2013-07-24 04:01:00,
2013-07-24 00:06:00,71.1,67.0,29.76,NW,312,0.0,2.0,87,0.00,,BKN042,0.00,VWS V14.01,2013-07-24 04:06:00,
2013-07-24 00:11:00,71.1,67.0,29.76,NW,312,0.0,0.0,87,0.00,,BKN042,0.00,VWS V14.01,2013-07-24 04:11:00,
2013-07-24 00:15:00,71.1,67.0,29.76,NW,318,2.0,2.0,87,0.00,,BKN037,0.00,VWS V14.01,2013-07-24 04:15:00,
2013-07-24 00:16:00,71.1,67.0,29.76,NNW,332,0.0,3.0,87,0.00,,BKN042,0.00,VWS V14.01,2013-07-24 04:16:00,
2013-07-24 00:21:00,71.1,66.7,29.76,NNW,336,0.0,3.0,86,0.00,,BKN042,0.00,VWS V14.01,2013-07-24 04:21:00,
2013-07-24 00:26:00,71.1,66.7,29.76,NNW,335,1.0,2.0,86,0.00,,BKN042,0.00,VWS V14.01,2013-07-24 04:26:00,
2013-07-24 00:30:00,70.9,66.5,29.76,North,349,0.0,3.0,86,0.00,,BKN037,0.00,VWS V14.01,2013-07-24 04:30:00,
2013-07-24 00:31:00,70.9,66.5,29.76,North,349,2.0,5.0,86,0.00,,BKN042,0.00,VWS V14.01,2013-07-24 04:31:00,
2013-07-24 00:36:00,70.9,66.5,29.76,NNW,330,3.0,5.0,86,0.00,,BKN042,0.00,VWS V14.01,2013-07-24 04:36:00,
2013-07-24 00:41:00,70.9,66.5,29.76,NNW,336,0.0,5.0,86,0.00,,BKN042,0.00,VWS V14.01,2013-07-24 04:41:00,
2013-07-24 00:45:00,70.8,66.4,29.77,NNW,336,1.0,3.0,86,0.00,,BKN037,0.00,VWS V14.01,2013-07-24 04:45:00,
2013-07-24 00:46:00,70.8,66.4,29.77,NNW,336,0.0,3.0,86,0.00,,BKN042,0.00,VWS V14.01,2013-07-24 04:46:00,
2013-07-24 00:51:00,70.8,66.7,29.77,NNW,336,0.0,2.0,87,0.00,,BKN042,0.00,VWS V14.01,2013-07-24 04:51:00,
2013-07-24 00:56:00,70.8,66.7,29.77,NNW,336,0.0,1.0,87,0.00,,BKN042,0.00,VWS V14.01,2013-07-24 04:56:00,
2013-07-24 01:00:00,70.6,66.6,29.77,NNW,336,0.0,0.0,87,0.00,,BKN037,0.00,VWS V14.01,2013-07-24 05:00:00,
2013-07-24 01:01:00,70.6,66.6,29.77,NNW,336,0.0,0.0,87,0.00,,BKN070,0.00,VWS V14.01,2013-07-24 05:01:00,
2013-07-24 01:06:00,70.6,66.6,29.77,NNW,336,0.0,2.0,87,0.00,,BKN070,0.00,VWS V14.01,2013-07-24 05:06:00,
2013-07-24 01:11:00,70.4,66.3,29.77,NNW,336,0.0,0.0,87,0.00,,BKN070,0.00,VWS V14.01,2013-07-24 05:11:00,
2013-07-24 01:15:00,70.4,66.3,29.77,NNW,336,0.0,0.0,87,0.00,,BKN037,0.00,VWS V14.01,2013-07-24 05:15:00,
2013-07-24 01:16:00,70.3,66.2,29.77,NNW,336,0.0,0.0,87,0.00,,BKN070,0.00,VWS V14.01,2013-07-24 05:16:00,
2013-07-24 01:21:00,70.3,66.2,29.77,NNW,336,0.0,0.0,87,0.00,,BKN070,0.00,VWS V14.01,2013-07-24 05:21:00,
2013-07-24 01:26:00,70.1,66.4,29.77,NNW,335,0.0,2.0,88,0.00,,BKN070,0.00,VWS V14.01,2013-07-24 05:26:00,
2013-07-24 01:30:00,70.1,66.4,29.77,NNW,336,0.0,2.0,88,0.00,,BKN037,0.00,VWS V14.01,2013-07-24 05:30:00,
2013-07-24 01:31:00,69.9,66.2,29.77,NNW,336,0.0,2.0,88,0.00,,BKN070,0.00,VWS V14.01,2013-07-24 05:31:00,
2013-07-24 01:36:00,69.9,66.2,29.77,NNW,336,0.0,2.0,88,0.00,,BKN070,0.00,VWS V14.01,2013-07-24 05:36:00,
2013-07-24 01:41:00,69.8,66.1,29.77,NNW,336,0.0,1.0,88,0.00,,BKN070,0.00,VWS V14.01,2013-07-24 05:41:00,
2013-07-24 01:45:00,69.8,66.1,29.77,NNW,336,0.0,3.0,88,0.00,,BKN037,0.00,VWS V14.01,2013-07-24 05:45:00,
2013-07-24 01:46:00,69.8,66.1,29.77,NNW,336,0.0,3.0,88,0.00,,BKN070,0.00,VWS V14.01,2013-07-24 05:46:00,
2013-07-24 01:51:00,69.6,65.9,29.77,NNW,336,0.0,0.0,88,0.00,,BKN070,0.00,VWS V14.01,2013-07-24 05:51:00,
2013-07-24 01:56:00,69.4,66.0,29.77,NNW,336,0.0,0.0,89,0.00,,BKN070,0.00,VWS V14.01,2013-07-24 05:56:00,
2013-07-24 02:00:00,69.4,66.0,29.77,NNW,336,0.0,0.0,89,0.00,,BKN037,0.00,VWS V14.01,2013-07-24 06:00:00,
2013-07-24 02:01:00,69.3,65.9,29.77,NNW,336,0.0,0.0,89,0.00,,CLR,0.00,VWS V14.01,2013-07-24 06:01:00,
2013-07-24 02:06:00,69.3,65.9,29.77,NNW,336,0.0,0.0,89,0.00,,CLR,0.00,VWS V14.01,2013-07-24 06:06:00,
2013-07-24 02:11:00,69.1,66.1,29.77,NNW,337,1.0,3.0,90,0.00,,CLR,0.00,VWS V14.01,2013-07-24 06:11:00,
2013-07-24 02:15:00,69.1,66.1,29.75,NNW,346,1.0,4.0,90,0.00,,BKN037,0.00,VWS V14.01,2013-07-24 06:15:00,
2013-07-24 02:16:00,69.1,66.1,29.75,NNW,344,1.0,4.0,90,0.00,,CLR,0.00,VWS V14.01,2013-07-24 06:16:00,
2013-07-24 02:21:00,69.1,66.1,29.75,NNW,344,1.0,3.0,90,0.00,,CLR,0.00,VWS V14.01,2013-07-24 06:21:00,
2013-07-24 02:26:00,68.9,65.8,29.75,NNW,344,0.0,2.0,90,0.00,,CLR,0.00,VWS V14.01,2013-07-24 06:26:00,
2013-07-24 02:30:00,68.9,65.8,29.76,NNW,344,0.0,0.0,90,0.00,,BKN037,0.00,VWS V14.01,2013-07-24 06:30:00,
2013-07-24 02:31:00,68.9,65.8,29.76,NNW,344,0.0,0.0,90,0.00,,CLR,0.00,VWS V14.01,2013-07-24 06:31:00,
2013-07-24 02:36:00,68.9,65.8,29.76,NNW,344,0.0,0.0,90,0.00,,CLR,0.00,VWS V14.01,2013-07-24 06:36:00,
2013-07-24 02:41:00,68.9,65.8,29.76,NNW,344,0.0,0.0,90,0.00,,CLR,0.00,VWS V14.01,2013-07-24 06:41:00,
2013-07-24 02:45:00,68.9,66.2,29.76,NNW,344,0.0,0.0,91,0.00,,BKN037,0.00,VWS V14.01,2013-07-24 06:45:00,
2013-07-24 02:46:00,68.9,66.2,29.76,NNW,344,0.0,0.0,91,0.00,,CLR,0.00,VWS V14.01,2013-07-24 06:46:00,
2013-07-24 02:51:00,68.9,66.2,29.76,NNW,344,0.0,0.0,91,0.00,,CLR,0.00,VWS V14.01,2013-07-24 06:51:00,
2013-07-24 02:56:00,68.9,66.2,29.76,NNW,344,0.0,0.0,91,0.00,,CLR,0.00,VWS V14.01,2013-07-24 06:56:00,
2013-07-24 03:00:00,68.9,66.2,29.76,NNW,344,0.0,0.0,91,0.00,,BKN037,0.00,VWS V14.01,2013-07-24 07:00:00,
2013-07-24 03:01:00,68.8,66.1,29.76,NNW,344,0.0,0.0,91,0.00,,BKN070,0.00,VWS V14.01,2013-07-24 07:01:00,
2013-07-24 03:06:00,68.8,66.1,29.76,NNW,344,0.0,1.0,91,0.00,,BKN070,0.00,VWS V14.01,2013-07-24 07:06:00,
2013-07-24 03:11:00,68.8,66.1,29.76,NNW,343,0.0,5.0,91,0.00,,BKN070,0.00,VWS V14.01,2013-07-24 07:11:00,
2013-07-24 03:15:00,68.8,66.1,29.76,NNW,343,0.0,5.0,91,0.00,,BKN037,0.00,VWS V14.01,2013-07-24 07:15:00,
2013-07-24 03:16:00,68.8,66.1,29.76,NNW,344,0.0,5.0,91,0.00,,OVC040,0.00,VWS V14.01,2013-07-24 07:16:00,
2013-07-24 03:22:00,68.8,66.1,29.76,NNW,333,0.0,6.0,91,0.00,,OVC040,0.00,VWS V14.01,2013-07-24 07:22:00,
2013-07-24 03:27:00,68.8,65.8,29.76,NNW,339,2.0,6.0,90,0.00,,OVC040,0.00,VWS V14.01,2013-07-24 07:27:00,
2013-07-24 03:30:00,68.6,65.6,29.76,NNW,342,3.0,5.0,90,0.00,,BKN037,0.00,VWS V14.01,2013-07-24 07:30:00,
2013-07-24 03:32:00,68.6,65.6,29.76,NNW,343,1.0,5.0,90,0.00,,BKN065,0.00,VWS V14.01,2013-07-24 07:32:00,
2013-07-24 03:37:00,68.8,65.8,29.76,North,349,3.0,5.0,90,0.00,,BKN065,0.00,VWS V14.01,2013-07-24 07:37:00,
2013-07-24 03:42:00,68.8,65.8,29.76,NNW,344,0.0,6.0,90,0.00,,BKN065,0.00,VWS V14.01,2013-07-24 07:42:00,
2013-07-24 03:45:00,68.8,65.8,29.76,NNW,347,3.0,6.0,90,0.00,,BKN037,0.00,VWS V14.01,2013-07-24 07:45:00,
2013-07-24 03:47:00,68.8,65.4,29.76,North,349,1.0,6.0,89,0.00,,BKN060,0.00,VWS V14.01,2013-07-24 07:47:00,
2013-07-24 03:52:00,68.8,65.4,29.76,NNW,340,2.0,5.0,89,0.00,,BKN060,0.00,VWS V14.01,2013-07-24 07:52:00,
2013-07-24 03:57:00,68.6,65.2,29.76,North,350,0.0,8.0,89,0.00,,BKN060,0.00,VWS V14.01,2013-07-24 07:57:00,
2013-07-24 04:00:00,68.6,65.2,29.75,North,10,1.0,8.0,89,0.00,,BKN037,0.00,VWS V14.01,2013-07-24 08:00:00,
2013-07-24 04:02:00,68.6,65.2,29.75,NNW,336,2.0,8.0,89,0.00,,BKN065,0.00,VWS V14.01,2013-07-24 08:02:00,
2013-07-24 04:07:00,68.6,65.2,29.75,North,350,3.0,6.0,89,0.00,,BKN065,0.00,VWS V14.01,2013-07-24 08:07:00,
2013-07-24 04:12:00,68.6,65.2,29.75,North,350,5.0,8.0,89,0.00,,BKN065,0.00,VWS V14.01,2013-07-24 08:12:00,
2013-07-24 04:15:00,68.4,65.0,29.76,North,357,0.0,8.0,89,0.00,,BKN037,0.00,VWS V14.01,2013-07-24 08:15:00,
2013-07-24 04:17:00,68.4,65.0,29.76,North,352,4.0,8.0,89,0.00,,BKN065,0.00,VWS V14.01,2013-07-24 08:17:00,
2013-07-24 04:22:00,68.4,65.0,29.76,NNW,347,3.0,7.0,89,0.00,,BKN065,0.00,VWS V14.01,2013-07-24 08:22:00,
2013-07-24 04:27:00,68.4,65.0,29.76,NNW,346,1.0,7.0,89,0.00,,BKN065,0.00,VWS V14.01,2013-07-24 08:27:00,
2013-07-24 04:30:00,68.4,65.0,29.76,NNW,346,0.0,7.0,89,0.00,,BKN037,0.00,VWS V14.01,2013-07-24 08:30:00,
2013-07-24 04:32:00,68.3,64.9,29.76,NNW,346,2.0,7.0,89,0.00,,BKN065,0.00,VWS V14.01,2013-07-24 08:32:00,
2013-07-24 04:37:00,68.3,65.3,29.76,North,354,5.0,6.0,90,0.00,,BKN065,0.00,VWS V14.01,2013-07-24 08:37:00,
2013-07-24 04:42:00,68.3,65.3,29.76,North,359,2.0,12.0,90,0.00,,BKN065,0.00,VWS V14.01,2013-07-24 08:42:00,
2013-07-24 04:45:00,68.3,65.3,29.77,NNW,344,3.0,12.0,90,0.00,,BKN037,0.00,VWS V14.01,2013-07-24 08:45:00,
2013-07-24 04:47:00,68.3,65.3,29.77,NNW,344,0.0,6.0,90,0.00,,BKN065,0.00,VWS V14.01,2013-07-24 08:47:00,
2013-07-24 04:52:00,68.3,65.3,29.77,NNW,346,1.0,6.0,90,0.00,,BKN065,0.00,VWS V14.01,2013-07-24 08:52:00,
2013-07-24 04:57:00,68.1,65.1,29.77,East,82,0.0,6.0,90,0.00,,BKN065,0.00,VWS V14.01,2013-07-24 08:57:00,
2013-07-24 05:00:00,68.1,65.1,29.77,NE,42,0.0,6.0,90,0.00,,BKN037,0.00,VWS V14.01,2013-07-24 09:00:00,
2013-07-24 05:02:00,68.1,64.7,29.77,North,8,1.0,8.0,89,0.00,,OVC017,0.00,VWS V14.01,2013-07-24 09:02:00,
2013-07-24 05:07:00,67.9,64.5,29.77,NNE,13,3.0,8.0,89,0.00,,OVC017,0.00,VWS V14.01,2013-07-24 09:07:00,
2013-07-24 05:12:00,67.8,64.4,29.77,NNE,23,2.0,7.0,89,0.00,,OVC017,0.00,VWS V14.01,2013-07-24 09:12:00,
2013-07-24 05:15:00,67.6,64.2,29.78,North,1,0.0,7.0,89,0.00,,BKN037,0.00,VWS V14.01,2013-07-24 09:15:00,
2013-07-24 05:17:00,67.6,64.2,29.78,NNE,27,0.0,7.0,89,0.00,,OVC017,0.00,VWS V14.01,2013-07-24 09:17:00,
2013-07-24 05:22:00,67.6,64.2,29.78,NE,38,0.0,6.0,89,0.00,,OVC017,0.00,VWS V14.01,2013-07-24 09:22:00,
2013-07-24 05:27:00,67.6,64.2,29.78,NNE,17,0.0,6.0,89,0.00,,OVC017,0.00,VWS V14.01,2013-07-24 09:27:00,
2013-07-24 05:30:00,67.6,64.2,29.79,NNE,27,5.0,5.0,89,0.00,,BKN037,0.00,VWS V14.01,2013-07-24 09:30:00,
2013-07-24 05:32:00,67.6,64.2,29.79,North,0,0.0,6.0,89,0.00,,OVC017,0.00,VWS V14.01,2013-07-24 09:32:00,
2013-07-24 05:37:00,67.4,64.1,29.79,NE,38,0.0,7.0,89,0.00,,OVC017,0.00,VWS V14.01,2013-07-24 09:37:00,
2013-07-24 05:42:00,66.9,62.9,29.79,ENE,65,5.0,7.0,87,0.00,,OVC017,0.00,VWS V14.01,2013-07-24 09:42:00,
2013-07-24 05:45:00,66.9,62.6,29.80,NNE,32,3.0,6.0,86,0.00,,BKN037,0.00,VWS V14.01,2013-07-24 09:45:00,
2013-07-24 05:47:00,66.8,62.5,29.80,North,10,0.0,6.0,86,0.00,,OVC017,0.00,VWS V14.01,2013-07-24 09:47:00,
2013-07-24 05:52:00,66.8,62.2,29.80,ENE,65,0.0,6.0,85,0.00,,OVC017,0.00,VWS V14.01,2013-07-24 09:52:00,
2013-07-24 05:57:00,66.6,62.0,29.80,ENE,65,0.0,6.0,85,0.00,,OVC017,0.00,VWS V14.01,2013-07-24 09:57:00,
2013-07-24 06:00:00,66.4,62.1,29.80,ENE,72,0.0,6.0,86,0.00,,BKN037,0.00,VWS V14.01,2013-07-24 10:00:00,
2013-07-24 06:02:00,66.4,62.1,29.80,ENE,61,0.0,6.0,86,0.00,,OVC027,0.00,VWS V14.01,2013-07-24 10:02:00,
2013-07-24 06:07:00,66.4,62.1,29.80,NE,44,0.0,6.0,86,0.00,,OVC027,0.00,VWS V14.01,2013-07-24 10:07:00,
2013-07-24 06:12:00,66.3,62.0,29.80,NE,45,0.0,3.0,86,0.00,,OVC027,0.00,VWS V14.01,2013-07-24 10:12:00,
2013-07-24 06:15:00,66.1,61.8,29.82,East,82,0.0,3.0,86,0.00,,BKN037,0.00,VWS V14.01,2013-07-24 10:15:00,
2013-07-24 06:17:00,66.1,61.8,29.82,East,82,0.0,3.0,86,0.00,,OVC027,0.00,VWS V14.01,2013-07-24 10:17:00,
2013-07-24 06:22:00,66.1,62.1,29.82,NE,35,0.0,0.0,87,0.00,,OVC027,0.00,VWS V14.01,2013-07-24 10:22:00,
2013-07-24 06:27:00,66.0,62.0,29.82,NNE,24,1.0,1.0,87,0.00,,OVC027,0.00,VWS V14.01,2013-07-24 10:27:00,
2013-07-24 06:30:00,66.0,62.0,29.83,NNE,23,0.0,1.0,87,0.00,,BKN037,0.00,VWS V14.01,2013-07-24 10:30:00,
2013-07-24 06:32:00,66.0,62.0,29.83,NNE,23,0.0,1.0,87,0.00,,OVC027,0.00,VWS V14.01,2013-07-24 10:32:00,
2013-07-24 06:37:00,66.0,62.3,29.83,NE,38,0.0,5.0,88,0.00,,OVC027,0.00,VWS V14.01,2013-07-24 10:37:00,
2013-07-24 06:42:00,66.0,62.3,29.83,ENE,69,0.0,1.0,88,0.00,,OVC027,0.00,VWS V14.01,2013-07-24 10:42:00,
2013-07-24 06:45:00,66.0,62.3,29.83,East,82,0.0,1.0,88,0.00,,BKN037,0.00,VWS V14.01,2013-07-24 10:45:00,
2013-07-24 06:47:00,66.0,62.3,29.83,NNE,20,0.0,3.0,88,0.00,,OVC027,0.00,VWS V14.01,2013-07-24 10:47:00,
2013-07-24 06:52:00,66.0,62.0,29.83,NNE,32,0.0,3.0,87,0.00,,OVC027,0.00,VWS V14.01,2013-07-24 10:52:00,
2013-07-24 06:57:00,65.8,61.8,29.83,NE,55,0.0,3.0,87,0.00,,OVC027,0.00,VWS V14.01,2013-07-24 10:57:00,
2013-07-24 07:00:00,65.8,61.8,29.84,NNE,18,0.0,5.0,87,0.00,,BKN037,0.00,VWS V14.01,2013-07-24 11:00:00,
2013-07-24 07:02:00,65.8,61.8,29.84,North,11,0.0,5.0,87,0.00,,OVC017,0.00,VWS V14.01,2013-07-24 11:02:00,
2013-07-24 07:07:00,65.8,61.8,29.84,NNE,30,0.0,5.0,87,0.00,,OVC017,0.00,VWS V14.01,2013-07-24 11:07:00,
2013-07-24 07:12:00,65.8,61.8,29.84,NNE,25,0.0,5.0,87,0.00,,OVC017,0.00,VWS V14.01,2013-07-24 11:12:00,
2013-07-24 07:15:00,66.0,62.0,29.84,NE,56,0.0,5.0,87,0.00,,BKN037,0.00,VWS V14.01,2013-07-24 11:15:00,
2013-07-24 07:17:00,66.0,62.0,29.84,NNE,18,3.0,6.0,87,0.00,,OVC017,0.00,VWS V14.01,2013-07-24 11:17:00,
2013-07-24 07:22:00,66.0,61.7,29.84,ENE,78,0.0,6.0,86,0.00,,OVC017,0.00,VWS V14.01,2013-07-24 11:22:00,
2013-07-24 07:27:00,66.0,61.4,29.84,North,357,0.0,8.0,85,0.00,,OVC017,0.00,VWS V14.01,2013-07-24 11:27:00,
2013-07-24 07:30:00,66.1,61.5,29.84,NNE,20,5.0,8.0,85,0.00,,BKN037,0.00,VWS V14.01,2013-07-24 11:30:00,
2013-07-24 07:32:00,66.1,61.5,29.84,NE,38,0.0,8.0,85,0.00,,OVC017,0.00,VWS V14.01,2013-07-24 11:32:00,
2013-07-24 07:37:00,66.1,61.5,29.84,NNE,28,2.0,8.0,85,0.00,,OVC017,0.00,VWS V14.01,2013-07-24 11:37:00,
2013-07-24 07:42:00,66.3,61.7,29.84,NNE,27,0.0,2.0,85,0.00,,OVC017,0.00,VWS V14.01,2013-07-24 11:42:00,
2013-07-24 07:45:00,66.3,61.3,29.85,NNW,335,1.0,5.0,84,0.00,,BKN037,0.00,VWS V14.01,2013-07-24 11:45:00,
2013-07-24 07:47:00,66.3,61.3,29.85,North,350,0.0,5.0,84,0.00,,OVC017,0.00,VWS V14.01,2013-07-24 11:47:00,
2013-07-24 07:52:00,66.8,61.8,29.85,North,359,2.0,8.0,84,0.00,,OVC017,0.00,VWS V14.01,2013-07-24 11:52:00,
2013-07-24 07:57:00,66.9,60.9,29.85,ENE,61,0.0,13.0,81,0.00,,OVC017,0.00,VWS V14.01,2013-07-24 11:57:00,
2013-07-24 08:00:00,67.1,60.7,29.86,North,357,3.0,13.0,80,0.00,,BKN037,0.00,VWS V14.01,2013-07-24 12:00:00,
2013-07-24 08:02:00,67.4,61.0,29.86,NNE,17,0.0,7.0,80,0.00,,OVC040,0.00,VWS V14.01,2013-07-24 12:02:00,
2013-07-24 08:07:00,67.9,61.2,29.86,ENE,76,1.0,7.0,79,0.00,,OVC040,0.00,VWS V14.01,2013-07-24 12:07:00,
2013-07-24 08:12:00,68.4,60.9,29.86,North,11,0.0,7.0,77,0.00,,OVC040,0.00,VWS V14.01,2013-07-24 12:12:00,
2013-07-24 08:15:00,68.6,60.7,29.86,NNE,17,5.0,8.0,76,0.00,,BKN037,0.00,VWS V14.01,2013-07-24 12:15:00,
2013-07-24 08:17:00,68.8,61.3,29.86,North,353,3.0,8.0,77,0.00,,OVC040,0.00,VWS V14.01,2013-07-24 12:17:00,
2013-07-24 08:22:00,68.9,61.0,29.86,NNE,16,1.0,8.0,76,0.00,,OVC040,0.00,VWS V14.01,2013-07-24 12:22:00,
2013-07-24 08:27:00,69.1,61.6,29.86,NNW,344,0.0,7.0,77,0.00,,OVC040,0.00,VWS V14.01,2013-07-24 12:27:00,
2013-07-24 08:30:00,68.9,61.0,29.88,NE,41,2.0,7.0,76,0.00,,BKN037,0.00,VWS V14.01,2013-07-24 12:30:00,
2013-07-24 08:32:00,68.8,61.3,29.88,NW,316,0.0,7.0,77,0.00,,OVC040,0.00,VWS V14.01,2013-07-24 12:32:00,
2013-07-24 08:37:00,68.4,60.9,29.88,ENE,66,2.0,7.0,77,0.00,,OVC040,0.00,VWS V14.01,2013-07-24 12:37:00,
2013-07-24 08:42:00,68.1,61.0,29.88,NNW,344,1.0,7.0,78,0.00,,OVC040,0.00,VWS V14.01,2013-07-24 12:42:00,
2013-07-24 08:45:00,68.1,61.0,29.88,NNE,27,0.0,6.0,78,0.00,,BKN037,0.00,VWS V14.01,2013-07-24 12:45:00,
2013-07-24 08:47:00,68.1,60.6,29.88,NNE,23,5.0,6.0,77,0.00,,OVC040,0.00,VWS V14.01,2013-07-24 12:47:00,
2013-07-24 08:52:00,68.1,60.3,29.88,North,356,3.0,8.0,76,0.00,,OVC040,0.00,VWS V14.01,2013-07-24 12:52:00,
2013-07-24 08:57:00,68.3,60.8,29.88,NNE,23,5.0,10.0,77,0.00,,OVC040,0.00,VWS V14.01,2013-07-24 12:57:00,
2013-07-24 09:00:00,68.3,60.8,29.88,North,7,0.0,10.0,77,0.00,,BKN037,0.00,VWS V14.01,2013-07-24 13:00:00,
2013-07-24 09:02:00,68.3,60.8,29.88,NNE,14,5.0,10.0,77,0.00,,OVC040,0.00,VWS V14.01,2013-07-24 13:02:00,
2013-07-24 09:07:00,68.3,60.5,29.88,NNE,20,0.0,8.0,76,0.00,,OVC040,0.00,VWS V14.01,2013-07-24 13:07:00,
2013-07-24 09:12:00,68.3,60.5,29.88,NE,42,0.0,7.0,76,0.00,,OVC040,0.00,VWS V14.01,2013-07-24 13:12:00,
2013-07-24 09:15:00,68.6,60.4,29.89,ENE,76,4.0,8.0,75,0.00,,BKN037,0.00,VWS V14.01,2013-07-24 13:15:00,
2013-07-24 09:17:00,69.1,60.5,29.89,NE,34,0.0,8.0,74,0.00,,OVC040,0.00,VWS V14.01,2013-07-24 13:17:00,
2013-07-24 09:22:00,69.9,60.5,29.89,NNE,13,1.0,6.0,72,0.00,,OVC040,0.00,VWS V14.01,2013-07-24 13:22:00,
2013-07-24 09:27:00,70.1,60.3,29.89,NE,51,5.0,11.0,71,0.00,,OVC040,0.00,VWS V14.01,2013-07-24 13:27:00,
2013-07-24 09:30:00,70.1,60.7,29.89,NNE,20,3.0,11.0,72,0.00,,BKN037,0.00,VWS V14.01,2013-07-24 13:30:00,
2013-07-24 09:32:00,70.1,60.3,29.89,North,4,0.0,11.0,71,0.00,,BKN038,0.00,VWS V14.01,2013-07-24 13:32:00,
2013-07-24 09:37:00,70.6,60.0,29.89,NNE,24,0.0,8.0,69,0.00,,BKN038,0.00,VWS V14.01,2013-07-24 13:37:00,
2013-07-24 09:42:00,70.9,60.2,29.89,NE,45,7.0,8.0,69,0.00,,BKN038,0.00,VWS V14.01,2013-07-24 13:42:00,
2013-07-24 09:45:00,71.3,61.0,29.89,ENE,64,3.0,9.0,70,0.00,,BKN037,0.00,VWS V14.01,2013-07-24 13:45:00,
2013-07-24 09:47:00,71.5,60.8,29.89,ENE,64,0.0,9.0,69,0.00,,BKN038,0.00,VWS V14.01,2013-07-24 13:47:00,
2013-07-24 09:52:00,72.1,61.4,29.89,ENE,72,1.0,7.0,69,0.00,,BKN038,0.00,VWS V14.01,2013-07-24 13:52:00,
2013-07-24 09:57:00,72.5,60.9,29.89,NNE,20,0.0,10.0,67,0.00,,BKN038,0.00,VWS V14.01,2013-07-24 13:57:00,
2013-07-24 10:00:00,72.3,60.7,29.89,NNE,20,5.0,10.0,67,0.00,,BKN037,0.00,VWS V14.01,2013-07-24 14:00:00,
2013-07-24 10:02:00,72.1,60.5,29.89,NNE,31,0.0,10.0,67,0.00,,OVC038,0.00,VWS V14.01,2013-07-24 14:02:00,
2013-07-24 10:07:00,72.1,61.8,29.89,NE,38,3.0,7.0,70,0.00,,OVC038,0.00,VWS V14.01,2013-07-24 14:07:00,
2013-07-24 10:12:00,71.6,60.9,29.89,NNE,31,0.0,7.0,69,0.00,,OVC038,0.00,VWS V14.01,2013-07-24 14:12:00,
2013-07-24 10:15:00,71.3,61.0,29.89,NE,35,0.0,7.0,70,0.00,,BKN037,0.00,VWS V14.01,2013-07-24 14:15:00,
2013-07-24 10:17:00,70.9,61.4,29.89,ENE,73,0.0,7.0,72,0.00,,OVC038,0.00,VWS V14.01,2013-07-24 14:17:00,
2013-07-24 10:22:00,70.4,61.3,29.89,NE,40,5.0,6.0,73,0.00,,OVC038,0.00,VWS V14.01,2013-07-24 14:22:00,
2013-07-24 10:27:00,70.1,61.0,29.89,NE,48,0.0,6.0,73,0.00,,OVC038,0.00,VWS V14.01,2013-07-24 14:27:00,
2013-07-24 10:30:00,69.9,60.5,29.89,NNE,23,0.0,6.0,72,0.00,,BKN037,0.00,VWS V14.01,2013-07-24 14:30:00,
2013-07-24 10:32:00,69.9,61.2,29.89,ENE,75,0.0,6.0,74,0.00,,OVC036,0.00,VWS V14.01,2013-07-24 14:32:00,
2013-07-24 10:37:00,69.8,60.4,29.89,NNE,25,0.0,7.0,72,0.00,,OVC036,0.00,VWS V14.01,2013-07-24 14:37:00,
2013-07-24 10:42:00,69.8,60.8,29.89,NE,52,1.0,10.0,73,0.00,,OVC036,0.00,VWS V14.01,2013-07-24 14:42:00,
2013-07-24 10:45:00,69.8,60.4,29.90,North,357,0.0,10.0,72,0.00,,BKN037,0.00,VWS V14.01,2013-07-24 14:45:00,
2013-07-24 10:47:00,69.8,60.8,29.90,NNE,25,0.0,7.0,73,0.00,,OVC038,0.00,VWS V14.01,2013-07-24 14:47:00,
2013-07-24 10:52:00,69.8,60.8,29.90,NNE,30,2.0,4.0,73,0.00,,OVC038,0.00,VWS V14.01,2013-07-24 14:52:00,
2013-07-24 10:57:00,69.8,61.2,29.90,ENE,64,0.0,7.0,74,0.00,,OVC038,0.00,VWS V14.01,2013-07-24 14:57:00,
2013-07-24 11:00:00,69.8,60.8,29.91,NE,42,0.0,7.0,73,0.00,,BKN037,0.00,VWS V14.01,2013-07-24 15:00:00,
2013-07-24 11:02:00,69.8,61.2,29.91,North,0,0.0,6.0,74,0.00,,OVC040,0.00,VWS V14.01,2013-07-24 15:02:00,
2013-07-24 11:07:00,69.9,61.2,29.91,NNW,333,0.0,6.0,74,0.00,,OVC040,0.00,VWS V14.01,2013-07-24 15:07:00,
2013-07-24 11:12:00,70.1,61.0,29.91,NNE,32,0.0,10.0,73,0.00,,OVC040,0.00,VWS V14.01,2013-07-24 15:12:00,
2013-07-24 11:15:00,70.3,61.6,29.91,NNE,20,3.0,10.0,74,0.00,,BKN037,0.00,VWS V14.01,2013-07-24 15:15:00,
2013-07-24 11:17:00,70.4,61.0,29.91,NNE,16,0.0,10.0,72,0.00,,OVC040,0.00,VWS V14.01,2013-07-24 15:17:00,
2013-07-24 11:22:00,70.6,61.1,29.91,NE,51,1.0,8.0,72,0.00,,OVC040,0.00,VWS V14.01,2013-07-24 15:22:00,
2013-07-24 11:27:00,71.6,61.7,29.91,NNE,24,5.0,7.0,71,0.00,,OVC040,0.00,VWS V14.01,2013-07-24 15:27:00,
2013-07-24 11:30:00,72.0,61.3,29.91,NE,41,6.0,7.0,69,0.00,,BKN037,0.00,VWS V14.01,2013-07-24 15:30:00,
2013-07-24 11:32:00,72.1,60.1,29.91,NNE,18,6.0,10.0,66,0.00,,OVC040,0.00,VWS V14.01,2013-07-24 15:32:00,
2013-07-24 11:37:00,72.0,60.5,29.91,NNE,32,0.0,10.0,67,0.00,,OVC040,0.00,VWS V14.01,2013-07-24 15:37:00,
2013-07-24 11:42:00,72.3,60.7,29.91,NNE,20,0.0,9.0,67,0.00,,OVC040,0.00,VWS V14.01,2013-07-24 15:42:00,
2013-07-24 11:45:00,72.1,60.1,29.91,NNE,20,0.0,7.0,66,0.00,,BKN037,0.00,VWS V14.01,2013-07-24 15:45:00,
2013-07-24 11:47:00,72.1,61.0,29.91,NNE,25,0.0,7.0,68,0.00,,OVC040,0.00,VWS V14.01,2013-07-24 15:47:00,
2013-07-24 11:52:00,71.8,61.1,29.91,NNE,14,0.0,6.0,69,0.00,,OVC040,0.00,VWS V14.01,2013-07-24 15:52:00,
2013-07-24 11:57:00,72.1,62.2,29.91,North,359,4.0,6.0,71,0.00,,OVC040,0.00,VWS V14.01,2013-07-24 15:57:00,
2013-07-24 12:00:00,72.5,62.2,29.92,NNE,20,3.0,6.0,70,0.00,,BKN037,0.00,VWS V14.01,2013-07-24 16:00:00,
2013-07-24 12:02:00,72.7,60.7,29.92,NNE,23,0.0,6.0,66,0.00,,OVC035,0.00,VWS V14.01,2013-07-24 16:02:00,
2013-07-24 12:07:00,72.5,60.5,29.92,NE,40,0.0,5.0,66,0.00,,OVC035,0.00,VWS V14.01,2013-07-24 16:07:00,
2013-07-24 12:12:00,72.3,60.7,29.92,North,1,0.0,6.0,67,0.00,,OVC035,0.00,VWS V14.01,2013-07-24 16:12:00,
2013-07-24 12:15:00,72.3,61.2,29.92,NNE,23,0.0,6.0,68,0.00,,BKN037,0.00,VWS V14.01,2013-07-24 16:15:00,
2013-07-24 12:17:00,72.3,61.2,29.92,ENE,66,0.0,7.0,68,0.00,,OVC036,0.00,VWS V14.01,2013-07-24 16:17:00,
2013-07-24 12:22:00,72.3,60.3,29.92,NNE,20,0.0,10.0,66,0.00,,OVC036,0.00,VWS V14.01,2013-07-24 16:22:00,
2013-07-24 12:27:00,72.1,60.5,29.92,NNW,340,3.0,10.0,67,0.00,,OVC036,0.00,VWS V14.01,2013-07-24 16:27:00,
2013-07-24 12:30:00,72.1,61.0,29.92,NNE,31,1.0,8.0,68,0.00,,BKN037,0.00,VWS V14.01,2013-07-24 16:30:00,
2013-07-24 12:32:00,72.1,61.0,29.92,NNE,14,1.0,8.0,68,0.00,,OVC036,0.00,VWS V14.01,2013-07-24 16:32:00,
2013-07-24 12:38:00,72.1,61.4,29.92,NE,44,0.0,7.0,69,0.00,,OVC036,0.00,VWS V14.01,2013-07-24 16:38:00,
2013-07-24 12:43:00,72.0,60.5,29.92,NE,44,0.0,5.0,67,0.00,,OVC036,0.00,VWS V14.01,2013-07-24 16:43:00,
2013-07-24 12:45:00,72.0,60.5,29.92,NNE,24,0.0,5.0,67,0.00,,BKN037,0.00,VWS V14.01,2013-07-24 16:45:00,
2013-07-24 12:48:00,71.8,59.8,29.92,NNE,20,0.0,6.0,66,0.00,,OVC046,0.00,VWS V14.01,2013-07-24 16:48:00,
2013-07-24 12:53:00,71.8,60.7,29.92,NNE,23,2.0,8.0,68,0.00,,OVC046,0.00,VWS V14.01,2013-07-24 16:53:00,
2013-07-24 12:58:00,72.0,60.0,29.92,NE,35,3.0,5.0,66,0.00,,OVC046,0.00,VWS V14.01,2013-07-24 16:58:00,
2013-07-24 13:00:00,72.3,60.3,29.91,North,6,0.0,5.0,66,0.00,,BKN037,0.00,VWS V14.01,2013-07-24 17:00:00,
2013-07-24 13:03:00,72.7,60.7,29.91,ENE,65,0.0,5.0,66,0.00,,OVC043,0.00,VWS V14.01,2013-07-24 17:03:00,
2013-07-24 13:08:00,72.8,60.8,29.91,North,0,0.0,6.0,66,0.00,,OVC043,0.00,VWS V14.01,2013-07-24 17:08:00,
2013-07-24 13:13:00,73.0,60.1,29.91,North,354,6.0,8.0,64,0.00,,OVC043,0.00,VWS V14.01,2013-07-24 17:13:00,
2013-07-24 13:15:00,73.0,61.0,29.92,NW,316,4.0,8.0,66,0.00,,BKN037,0.00,VWS V14.01,2013-07-24 17:15:00,
2013-07-24 13:18:00,73.7,62.1,29.92,NNE,30,2.0,8.0,67,0.00,,OVC043,0.00,VWS V14.01,2013-07-24 17:18:00,
2013-07-24 13:23:00,74.2,60.4,29.92,NNE,23,2.0,9.0,62,0.00,,OVC043,0.00,VWS V14.01,2013-07-24 17:23:00,
2013-07-24 13:28:00,73.7,59.9,29.92,NNE,24,0.0,9.0,62,0.00,,OVC043,0.00,VWS V14.01,2013-07-24 17:28:00,
2013-07-24 13:30:00,73.5,60.6,29.92,NNE,17,0.0,9.0,64,0.00,,BKN037,0.00,VWS V14.01,2013-07-24 17:30:00,
2013-07-24 13:33:00,73.7,61.2,29.92,NNW,332,2.0,5.0,65,0.00,,OVC043,0.00,VWS V14.01,2013-07-24 17:33:00,
2013-07-24 13:38:00,74.6,61.2,29.92,NNE,13,0.0,6.0,63,0.00,,OVC043,0.00,VWS V14.01,2013-07-24 17:38:00,
2013-07-24 13:43:00,74.7,59.4,29.92,NW,322,0.0,10.0,59,0.00,,OVC043,0.00,VWS V14.01,2013-07-24 17:43:00,
2013-07-24 13:45:00,74.9,59.6,29.91,NNE,30,0.0,10.0,59,0.00,,BKN037,0.00,VWS V14.01,2013-07-24 17:45:00,
2013-07-24 13:48:00,74.9,60.1,29.91,WSW,248,4.0,10.0,60,0.00,,OVC043,0.00,VWS V14.01,2013-07-24 17:48:00,
2013-07-24 13:53:00,75.3,60.9,29.91,North,8,1.0,8.0,61,0.00,,OVC043,0.00,VWS V14.01,2013-07-24 17:53:00,
2013-07-24 13:58:00,74.6,60.7,29.91,NW,325,3.0,8.0,62,0.00,,OVC043,0.00,VWS V14.01,2013-07-24 17:58:00,
2013-07-24 14:00:00,74.7,60.4,29.91,NNE,31,2.0,8.0,61,0.00,,BKN037,0.00,VWS V14.01,2013-07-24 18:00:00,
2013-07-24 14:03:00,75.1,59.3,29.91,NNE,18,0.0,8.0,58,0.00,,BKN050,0.00,VWS V14.01,2013-07-24 18:03:00,
2013-07-24 14:08:00,75.3,60.5,29.91,NNE,18,0.0,8.0,60,0.00,,BKN050,0.00,VWS V14.01,2013-07-24 18:08:00,
2013-07-24 14:13:00,75.1,60.3,29.91,NE,49,3.0,7.0,60,0.00,,BKN050,0.00,VWS V14.01,2013-07-24 18:13:00,
2013-07-24 14:15:00,74.7,60.4,29.92,North,6,0.0,7.0,61,0.00,,BKN037,0.00,VWS V14.01,2013-07-24 18:15:00,
2013-07-24 14:18:00,74.6,60.3,29.92,NNW,340,6.0,8.0,61,0.00,,BKN050,0.00,VWS V14.01,2013-07-24 18:18:00,
2013-07-24 14:23:00,74.6,58.9,29.92,NNW,343,3.0,8.0,58,0.00,,BKN050,0.00,VWS V14.01,2013-07-24 18:23:00,
2013-07-24 14:28:00,75.3,59.5,29.92,North,0,0.0,8.0,58,0.00,,BKN050,0.00,VWS V14.01,2013-07-24 18:28:00,
2013-07-24 14:30:00,75.4,59.1,29.92,NNW,347,2.0,8.0,57,0.00,,BKN037,0.00,VWS V14.01,2013-07-24 18:30:00,
2013-07-24 14:33:00,75.6,58.3,29.92,North,354,0.0,8.0,55,0.00,,BKN050,0.00,VWS V14.01,2013-07-24 18:33:00,
2013-07-24 14:38:00,76.3,61.4,29.92,North,0,1.0,7.0,60,0.00,,BKN050,0.00,VWS V14.01,2013-07-24 18:38:00,
2013-07-24 14:43:00,77.0,60.1,29.92,NE,54,3.0,6.0,56,0.00,,BKN050,0.00,VWS V14.01,2013-07-24 18:43:00,
2013-07-24 14:45:00,77.2,61.3,29.91,NNW,344,3.0,12.0,58,0.00,,BKN037,0.00,VWS V14.01,2013-07-24 18:45:00,
2013-07-24 14:48:00,77.2,59.8,29.91,NNW,340,3.0,12.0,55,0.00,,BKN050,0.00,VWS V14.01,2013-07-24 18:48:00,
2013-07-24 14:53:00,77.6,62.2,29.91,NE,41,1.0,10.0,59,0.00,,BKN050,0.00,VWS V14.01,2013-07-24 18:53:00,
2013-07-24 14:58:00,77.6,59.7,29.91,NNE,13,0.0,6.0,54,0.00,,BKN050,0.00,VWS V14.01,2013-07-24 18:58:00,
2013-07-24 15:00:00,77.6,60.2,29.91,North,6,8.0,8.0,55,0.00,,BKN037,0.00,VWS V14.01,2013-07-24 19:00:00,
2013-07-24 15:03:00,77.4,59.0,29.91,North,349,4.0,11.0,53,0.00,,BKN055,0.00,VWS V14.01,2013-07-24 19:03:00,
2013-07-24 15:08:00,76.7,59.8,29.91,NNE,25,7.0,11.0,56,0.00,,BKN055,0.00,VWS V14.01,2013-07-24 19:08:00,
2013-07-24 15:13:00,77.0,62.5,29.91,NNE,24,6.0,7.0,61,0.00,,BKN055,0.00,VWS V14.01,2013-07-24 19:13:00,
2013-07-24 15:15:00,77.2,60.8,29.91,NNE,16,0.0,7.0,57,0.00,,BKN037,0.00,VWS V14.01,2013-07-24 19:15:00,
2013-07-24 15:18:00,77.2,60.3,29.91,NE,35,1.0,8.0,56,0.00,,BKN055,0.00,VWS V14.01,2013-07-24 19:18:00,
2013-07-24 15:23:00,76.7,59.3,29.91,North,0,3.0,8.0,55,0.00,,BKN055,0.00,VWS V14.01,2013-07-24 19:23:00,
2013-07-24 15:28:00,75.8,58.5,29.91,NNW,335,6.0,11.0,55,0.00,,BKN055,0.00,VWS V14.01,2013-07-24 19:28:00,
2013-07-24 15:30:00,75.6,58.8,29.92,NNW,344,8.0,11.0,56,0.00,,BKN037,0.00,VWS V14.01,2013-07-24 19:30:00,
2013-07-24 15:33:00,75.3,59.0,29.92,NW,322,5.0,8.0,57,0.00,,BKN055,0.00,VWS V14.01,2013-07-24 19:33:00,
2013-07-24 15:38:00,75.8,58.0,29.92,North,1,0.0,8.0,54,0.00,,BKN055,0.00,VWS V14.01,2013-07-24 19:38:00,
2013-07-24 15:43:00,76.5,58.6,29.92,NNE,17,0.0,8.0,54,0.00,,BKN055,0.00,VWS V14.01,2013-07-24 19:43:00,
2013-07-24 15:45:00,76.7,58.3,29.92,NNE,25,1.0,5.0,53,0.00,,BKN037,0.00,VWS V14.01,2013-07-24 19:45:00,
2013-07-24 15:48:00,77.0,60.1,29.92,North,359,0.0,7.0,56,0.00,,BKN055,0.00,VWS V14.01,2013-07-24 19:48:00,
2013-07-24 15:53:00,77.4,57.3,29.92,NNE,27,0.0,7.0,50,0.00,,BKN055,0.00,VWS V14.01,2013-07-24 19:53:00,
2013-07-24 15:58:00,77.7,59.2,29.92,NNE,32,0.0,5.0,53,0.00,,BKN055,0.00,VWS V14.01,2013-07-24 19:58:00,
2013-07-24 16:00:00,77.9,59.9,29.92,ENE,78,6.0,6.0,54,0.00,,BKN037,0.00,VWS V14.01,2013-07-24 20:00:00,
2013-07-24 16:03:00,78.1,61.6,29.92,NNE,23,6.0,7.0,57,0.00,,SCT055,0.00,VWS V14.01,2013-07-24 20:03:00,
2013-07-24 16:08:00,77.4,58.4,29.92,NNE,31,5.0,9.0,52,0.00,,SCT055,0.00,VWS V14.01,2013-07-24 20:08:00,
2013-07-24 16:13:00,77.2,59.8,29.92,ENE,68,2.0,9.0,55,0.00,,SCT055,0.00,VWS V14.01,2013-07-24 20:13:00,
2013-07-24 16:15:00,77.2,59.8,29.92,North,359,0.0,7.0,55,0.00,,BKN037,0.00,VWS V14.01,2013-07-24 20:15:00,
2013-07-24 16:18:00,77.6,60.7,29.92,NNE,27,0.0,6.0,56,0.00,,SCT055,0.00,VWS V14.01,2013-07-24 20:18:00,
2013-07-24 16:23:00,77.9,59.4,29.92,NE,45,2.0,6.0,53,0.00,,SCT055,0.00,VWS V14.01,2013-07-24 20:23:00,
2013-07-24 16:28:00,78.5,59.4,29.92,NNE,27,0.0,6.0,52,0.00,,SCT055,0.00,VWS V14.01,2013-07-24 20:28:00,
2013-07-24 16:30:00,78.6,61.1,29.92,NNE,32,0.0,6.0,55,0.00,,BKN037,0.00,VWS V14.01,2013-07-24 20:30:00,
2013-07-24 16:33:00,78.3,58.7,29.92,NNE,32,0.0,6.0,51,0.00,,SCT055,0.00,VWS V14.01,2013-07-24 20:33:00,
2013-07-24 16:38:00,77.4,60.0,29.92,NNE,20,0.0,7.0,55,0.00,,SCT055,0.00,VWS V14.01,2013-07-24 20:38:00,
2013-07-24 16:43:00,77.4,59.0,29.92,NNE,17,0.0,7.0,53,0.00,,SCT055,0.00,VWS V14.01,2013-07-24 20:43:00,
2013-07-24 16:45:00,77.4,57.9,29.92,NNE,28,0.0,7.0,51,0.00,,BKN037,0.00,VWS V14.01,2013-07-24 20:45:00,
2013-07-24 16:48:00,77.4,59.5,29.92,ENE,78,0.0,7.0,54,0.00,,SCT055,0.00,VWS V14.01,2013-07-24 20:48:00,
2013-07-24 16:53:00,77.6,58.6,29.92,ENE,58,0.0,10.0,52,0.00,,SCT055,0.00,VWS V14.01,2013-07-24 20:53:00,
2013-07-24 16:58:00,77.4,59.0,29.92,ENE,65,0.0,8.0,53,0.00,,SCT055,0.00,VWS V14.01,2013-07-24 20:58:00,
2013-07-24 17:00:00,77.4,61.0,29.92,NE,48,0.0,8.0,57,0.00,,BKN037,0.00,VWS V14.01,2013-07-24 21:00:00,
2013-07-24 17:03:00,77.6,58.6,29.92,ENE,73,4.0,8.0,52,0.00,,CLR,0.00,VWS V14.01,2013-07-24 21:03:00,
2013-07-24 17:08:00,77.7,59.8,29.92,NNE,20,0.0,6.0,54,0.00,,CLR,0.00,VWS V14.01,2013-07-24 21:08:00,
2013-07-24 17:13:00,77.9,58.3,29.92,NE,34,5.0,8.0,51,0.00,,CLR,0.00,VWS V14.01,2013-07-24 21:13:00,
2013-07-24 17:15:00,77.9,59.4,29.92,NNE,17,4.0,8.0,53,0.00,,BKN037,0.00,VWS V14.01,2013-07-24 21:15:00,
2013-07-24 17:18:00,77.7,59.8,29.92,NNE,24,0.0,8.0,54,0.00,,CLR,0.00,VWS V14.01,2013-07-24 21:18:00,
2013-07-24 17:23:00,77.7,58.2,29.92,ENE,73,0.0,6.0,51,0.00,,CLR,0.00,VWS V14.01,2013-07-24 21:23:00,
2013-07-24 17:28:00,77.7,59.2,29.92,NNE,27,1.0,7.0,53,0.00,,CLR,0.00,VWS V14.01,2013-07-24 21:28:00,
2013-07-24 17:30:00,77.6,58.6,29.92,North,4,0.0,7.0,52,0.00,,BKN037,0.00,VWS V14.01,2013-07-24 21:30:00,
2013-07-24 17:33:00,77.4,60.5,29.92,NNE,27,0.0,7.0,56,0.00,,CLR,0.00,VWS V14.01,2013-07-24 21:33:00,
2013-07-24 17:38:00,77.2,58.8,29.92,North,352,0.0,6.0,53,0.00,,CLR,0.00,VWS V14.01,2013-07-24 21:38:00,
2013-07-24 17:43:00,77.0,58.6,29.92,NE,34,0.0,5.0,53,0.00,,CLR,0.00,VWS V14.01,2013-07-24 21:43:00,
2013-07-24 17:45:00,77.0,59.1,29.92,NNE,30,0.0,3.0,54,0.00,,BKN037,0.00,VWS V14.01,2013-07-24 21:45:00,
2013-07-24 17:48:00,76.8,58.9,29.92,NNW,343,0.0,2.0,54,0.00,,CLR,0.00,VWS V14.01,2013-07-24 21:48:00,
2013-07-24 17:53:00,76.7,56.7,29.92,NNE,18,0.0,7.0,50,0.00,,CLR,0.00,VWS V14.01,2013-07-24 21:53:00,
2013-07-24 17:58:00,76.7,58.8,29.92,North,359,0.0,7.0,54,0.00,,CLR,0.00,VWS V14.01,2013-07-24 21:58:00,
2013-07-24 18:00:00,76.8,58.4,29.92,NE,44,0.0,7.0,53,0.00,,BKN037,0.00,VWS V14.01,2013-07-24 22:00:00,
2013-07-24 18:03:00,76.8,59.4,29.92,NNE,17,0.0,4.0,55,0.00,,FEW042,0.00,VWS V14.01,2013-07-24 22:03:00,
2013-07-24 18:08:00,76.7,58.3,29.92,NE,40,0.0,6.0,53,0.00,,FEW042,0.00,VWS V14.01,2013-07-24 22:08:00,
2013-07-24 18:13:00,76.5,58.1,29.92,NNE,28,0.0,6.0,53,0.00,,FEW042,0.00,VWS V14.01,2013-07-24 22:13:00,
2013-07-24 18:15:00,76.5,58.6,29.92,NNE,31,0.0,1.0,54,0.00,,BKN037,0.00,VWS V14.01,2013-07-24 22:15:00,
2013-07-24 18:18:00,76.3,59.0,29.92,North,8,0.0,1.0,55,0.00,,FEW042,0.00,VWS V14.01,2013-07-24 22:18:00,
2013-07-24 18:23:00,75.8,59.0,29.92,North,357,0.0,8.0,56,0.00,,FEW042,0.00,VWS V14.01,2013-07-24 22:23:00,
2013-07-24 18:28:00,75.3,59.5,29.92,North,359,0.0,6.0,58,0.00,,FEW042,0.00,VWS V14.01,2013-07-24 22:28:00,
2013-07-24 18:30:00,75.1,59.3,29.92,North,0,0.0,7.0,58,0.00,,BKN037,0.00,VWS V14.01,2013-07-24 22:30:00,
2013-07-24 18:33:00,74.6,58.4,29.92,NE,41,0.0,7.0,57,0.00,,FEW042,0.00,VWS V14.01,2013-07-24 22:33:00,
2013-07-24 18:38:00,73.9,58.2,29.92,NE,55,0.0,6.0,58,0.00,,FEW042,0.00,VWS V14.01,2013-07-24 22:38:00,
2013-07-24 18:43:00,73.3,57.7,29.92,NNE,23,3.0,7.0,58,0.00,,FEW042,0.00,VWS V14.01,2013-07-24 22:43:00,
2013-07-24 18:45:00,73.2,57.5,29.93,NNE,14,0.0,7.0,58,0.00,,BKN037,0.00,VWS V14.01,2013-07-24 22:45:00,
2013-07-24 18:48:00,72.8,56.7,29.93,NNE,28,0.0,7.0,57,0.00,,FEW042,0.00,VWS V14.01,2013-07-24 22:48:00,
2013-07-24 18:53:00,72.5,57.4,29.93,North,8,0.0,5.0,59,0.00,,FEW042,0.00,VWS V14.01,2013-07-24 22:53:00,
2013-07-24 18:58:00,72.3,58.1,29.93,North,0,0.0,6.0,61,0.00,,FEW042,0.00,VWS V14.01,2013-07-24 22:58:00,
2013-07-24 19:00:00,72.1,57.9,29.93,NNE,21,0.0,6.0,61,0.00,,BKN037,0.00,VWS V14.01,2013-07-24 23:00:00,
2013-07-24 19:03:00,72.0,57.8,29.93,NNE,21,0.0,6.0,61,0.00,,SCT046,0.00,VWS V14.01,2013-07-24 23:03:00,
2013-07-24 19:08:00,71.8,57.2,29.93,NNE,31,0.0,2.0,60,0.00,,SCT046,0.00,VWS V14.01,2013-07-24 23:08:00,
2013-07-24 19:13:00,71.6,57.5,29.93,NNE,31,0.0,2.0,61,0.00,,SCT046,0.00,VWS V14.01,2013-07-24 23:13:00,
2013-07-24 19:15:00,71.6,57.9,29.93,NNE,27,0.0,2.0,62,0.00,,BKN037,0.00,VWS V14.01,2013-07-24 23:15:00,
2013-07-24 19:18:00,71.5,56.9,29.93,NNE,27,0.0,5.0,60,0.00,,SCT046,0.00,VWS V14.01,2013-07-24 23:18:00,
2013-07-24 19:23:00,71.1,57.0,29.93,NNE,24,0.0,5.0,61,0.00,,SCT046,0.00,VWS V14.01,2013-07-24 23:23:00,
2013-07-24 19:28:00,70.8,57.2,29.93,NNE,20,0.0,5.0,62,0.00,,SCT046,0.00,VWS V14.01,2013-07-24 23:28:00,
2013-07-24 19:30:00,70.6,57.0,29.93,NNE,27,0.0,6.0,62,0.00,,BKN037,0.00,VWS V14.01,2013-07-24 23:30:00,
2013-07-24 19:33:00,70.4,57.2,29.93,North,10,0.0,6.0,63,0.00,,SCT046,0.00,VWS V14.01,2013-07-24 23:33:00,
2013-07-24 19:38:00,70.3,57.6,29.93,NE,44,0.0,6.0,64,0.00,,SCT046,0.00,VWS V14.01,2013-07-24 23:38:00,
2013-07-24 19:43:00,70.1,56.9,29.93,NE,34,5.0,5.0,63,0.00,,SCT046,0.00,VWS V14.01,2013-07-24 23:43:00,
2013-07-24 19:45:00,69.8,57.1,29.93,NNE,17,0.0,5.0,64,0.00,,BKN037,0.00,VWS V14.01,2013-07-24 23:45:00,
2013-07-24 19:48:00,69.6,57.3,29.93,NNE,23,0.0,5.0,65,0.00,,SCT046,0.00,VWS V14.01,2013-07-24 23:48:00,
2013-07-24 19:53:00,69.4,56.7,29.93,NNE,20,2.0,2.0,64,0.00,,SCT046,0.00,VWS V14.01,2013-07-24 23:53:00,
2013-07-24 19:58:00,69.1,56.4,29.93,NNE,17,0.0,3.0,64,0.00,,SCT046,0.00,VWS V14.01,2013-07-24 23:58:00,
2013-07-24 20:00:00,68.9,56.2,29.93,NNE,21,0.0,3.0,64,0.00,,BKN037,0.00,VWS V14.01,2013-07-25 00:00:00,
2013-07-24 20:03:00,68.8,56.6,29.93,NNE,31,0.0,3.0,65,0.00,,CLR,0.00,VWS V14.01,2013-07-25 00:03:00,
2013-07-24 20:08:00,68.4,56.2,29.93,NNE,20,0.0,3.0,65,0.00,,CLR,0.00,VWS V14.01,2013-07-25 00:08:00,
2013-07-24 20:13:00,68.1,56.3,29.93,NNE,20,0.0,0.0,66,0.00,,CLR,0.00,VWS V14.01,2013-07-25 00:13:00,
2013-07-24 20:15:00,67.9,56.1,29.94,NNE,20,0.0,0.0,66,0.00,,BKN037,0.00,VWS V14.01,2013-07-25 00:15:00,
2013-07-24 20:18:00,67.6,56.3,29.94,NNE,20,0.0,0.0,67,0.00,,CLR,0.00,VWS V14.01,2013-07-25 00:18:00,
2013-07-24 20:23:00,67.3,56.4,29.94,NNE,21,0.0,0.0,68,0.00,,CLR,0.00,VWS V14.01,2013-07-25 00:23:00,
2013-07-24 20:28:00,66.9,56.4,29.94,NNE,24,0.0,0.0,69,0.00,,CLR,0.00,VWS V14.01,2013-07-25 00:28:00,
2013-07-24 20:30:00,66.9,56.4,29.94,NNE,24,0.0,0.0,69,0.00,,BKN037,0.00,VWS V14.01,2013-07-25 00:30:00,
2013-07-24 20:33:00,66.6,56.1,29.94,NNE,24,0.0,0.0,69,0.00,,CLR,0.00,VWS V14.01,2013-07-25 00:33:00,
2013-07-24 20:38:00,66.4,56.3,29.94,NNE,24,0.0,0.0,70,0.00,,CLR,0.00,VWS V14.01,2013-07-25 00:38:00,
2013-07-24 20:43:00,66.1,56.4,29.94,NNE,24,0.0,0.0,71,0.00,,CLR,0.00,VWS V14.01,2013-07-25 00:43:00,
2013-07-24 20:45:00,66.1,56.4,29.95,NNE,24,0.0,0.0,71,0.00,,BKN037,0.00,VWS V14.01,2013-07-25 00:45:00,
2013-07-24 20:48:00,65.8,56.5,29.95,NNE,24,0.0,0.0,72,0.00,,CLR,0.00,VWS V14.01,2013-07-25 00:48:00,
2013-07-24 20:53:00,65.6,56.3,29.95,NNE,24,0.0,0.0,72,0.00,,CLR,0.00,VWS V14.01,2013-07-25 00:53:00,
2013-07-24 20:58:00,65.3,56.0,29.95,NNE,20,0.0,0.0,72,0.00,,CLR,0.00,VWS V14.01,2013-07-25 00:58:00,
2013-07-24 21:00:00,65.2,56.0,29.95,NNE,20,0.0,0.0,72,0.00,,BKN037,0.00,VWS V14.01,2013-07-25 01:00:00,
2013-07-24 21:03:00,65.0,55.8,29.95,NNE,20,0.0,0.0,72,0.00,,CLR,0.00,VWS V14.01,2013-07-25 01:03:00,
2013-07-24 21:04:00,65.0,56.2,29.95,NNE,20,0.0,0.0,73,0.00,,CLR,0.00,VWS V14.01,2013-07-25 01:04:00,
2013-07-24 21:09:00,64.8,56.0,29.95,North,0,1.0,4.0,73,0.00,,CLR,0.00,VWS V14.01,2013-07-25 01:09:00,
2013-07-24 21:14:00,64.7,55.9,29.95,North,0,0.0,4.0,73,0.00,,CLR,0.00,VWS V14.01,2013-07-25 01:14:00,
2013-07-24 21:15:00,64.5,55.7,29.95,North,0,0.0,4.0,73,0.00,,BKN037,0.00,VWS V14.01,2013-07-25 01:15:00,
2013-07-24 21:19:00,64.3,55.8,29.95,North,0,0.0,0.0,74,0.00,,CLR,0.00,VWS V14.01,2013-07-25 01:19:00,
2013-07-24 21:24:00,64.2,55.8,29.95,North,0,0.0,0.0,74,0.00,,CLR,0.00,VWS V14.01,2013-07-25 01:24:00,
2013-07-24 21:29:00,63.9,55.8,29.95,North,0,0.0,0.0,75,0.00,,CLR,0.00,VWS V14.01,2013-07-25 01:29:00,
2013-07-24 21:30:00,63.9,55.8,29.95,North,0,0.0,0.0,75,0.00,,BKN037,0.00,VWS V14.01,2013-07-25 01:30:00,
2013-07-24 21:34:00,63.5,55.8,29.95,North,0,0.0,0.0,76,0.00,,CLR,0.00,VWS V14.01,2013-07-25 01:34:00,
2013-07-24 21:39:00,63.2,55.9,29.95,North,0,0.0,1.0,77,0.00,,CLR,0.00,VWS V14.01,2013-07-25 01:39:00,
2013-07-24 21:44:00,62.9,55.6,29.96,North,0,0.0,1.0,77,0.00,,CLR,0.00,VWS V14.01,2013-07-25 01:44:00,
2013-07-24 21:45:00,62.9,55.6,29.96,North,0,0.0,1.0,77,0.00,,BKN037,0.00,VWS V14.01,2013-07-25 01:45:00,
2013-07-24 21:49:00,62.7,55.8,29.96,North,0,0.0,0.0,78,0.00,,CLR,0.00,VWS V14.01,2013-07-25 01:49:00,
2013-07-24 21:54:00,62.4,55.5,29.96,North,0,0.0,0.0,78,0.00,,CLR,0.00,VWS V14.01,2013-07-25 01:54:00,
2013-07-24 21:59:00,62.4,55.5,29.97,North,353,0.0,3.0,78,0.00,,CLR,0.00,VWS V14.01,2013-07-25 01:59:00,
2013-07-24 22:00:00,62.4,55.5,29.97,North,356,0.0,3.0,78,0.00,,BKN037,0.00,VWS V14.01,2013-07-25 02:00:00,
2013-07-24 22:04:00,62.3,55.4,29.97,North,0,0.0,3.0,78,0.00,,CLR,0.00,VWS V14.01,2013-07-25 02:04:00,
2013-07-24 22:09:00,62.1,55.2,29.97,North,0,0.0,1.0,78,0.00,,CLR,0.00,VWS V14.01,2013-07-25 02:09:00,
2013-07-24 22:14:00,62.0,55.4,29.97,NNE,18,0.0,2.0,79,0.00,,CLR,0.00,VWS V14.01,2013-07-25 02:14:00,
2013-07-24 22:15:00,62.0,55.4,29.97,NNE,18,0.0,2.0,79,0.00,,BKN037,0.00,VWS V14.01,2013-07-25 02:15:00,
2013-07-24 22:19:00,61.8,55.2,29.97,NNE,16,0.0,2.0,79,0.00,,CLR,0.00,VWS V14.01,2013-07-25 02:19:00,
2013-07-24 22:24:00,61.6,55.4,29.97,NNE,17,0.0,0.0,80,0.00,,CLR,0.00,VWS V14.01,2013-07-25 02:24:00,
2013-07-24 22:29:00,61.5,55.3,29.97,NNE,28,0.0,3.0,80,0.00,,CLR,0.00,VWS V14.01,2013-07-25 02:29:00,
2013-07-24 22:30:00,61.5,55.3,29.97,NNE,28,0.0,3.0,80,0.00,,BKN037,0.00,VWS V14.01,2013-07-25 02:30:00,
2013-07-24 22:34:00,61.3,55.1,29.97,NNE,28,0.0,0.0,80,0.00,,CLR,0.00,VWS V14.01,2013-07-25 02:34:00,
2013-07-24 22:39:00,61.0,55.1,29.97,NNE,28,0.0,1.0,81,0.00,,CLR,0.00,VWS V14.01,2013-07-25 02:39:00,
2013-07-24 22:44:00,60.9,55.0,29.98,NNE,28,0.0,0.0,81,0.00,,CLR,0.00,VWS V14.01,2013-07-25 02:44:00,
2013-07-24 22:45:00,60.9,55.0,29.98,NNE,28,0.0,0.0,81,0.00,,BKN037,0.00,VWS V14.01,2013-07-25 02:45:00,
2013-07-24 22:49:00,60.7,55.2,29.98,NNE,28,0.0,0.0,82,0.00,,CLR,0.00,VWS V14.01,2013-07-25 02:49:00,
2013-07-24 22:54:00,60.5,55.0,29.98,NNE,28,0.0,0.0,82,0.00,,CLR,0.00,VWS V14.01,2013-07-25 02:54:00,
2013-07-24 22:59:00,60.4,55.2,29.98,NNE,28,0.0,0.0,83,0.00,,CLR,0.00,VWS V14.01,2013-07-25 02:59:00,
2013-07-24 23:00:00,60.4,55.2,29.98,NNE,28,0.0,0.0,83,0.00,,BKN037,0.00,VWS V14.01,2013-07-25 03:00:00,
2013-07-24 23:04:00,60.2,55.0,29.98,NNE,27,0.0,0.0,83,0.00,,CLR,0.00,VWS V14.01,2013-07-25 03:04:00,
2013-07-24 23:10:00,60.1,54.9,29.98,NNE,25,0.0,0.0,83,0.00,,CLR,0.00,VWS V14.01,2013-07-25 03:10:00,
2013-07-24 23:15:00,59.9,54.7,29.98,NNE,25,0.0,0.0,83,0.00,,BKN037,0.00,VWS V14.01,2013-07-25 03:15:00,
2013-07-24 23:16:00,59.9,54.7,29.98,NNE,20,0.0,0.0,83,0.00,,CLR,0.00,VWS V14.01,2013-07-25 03:16:00,
2013-07-24 23:21:00,59.9,54.7,29.98,NNE,16,0.0,0.0,83,0.00,,CLR,0.00,VWS V14.01,2013-07-25 03:21:00,
2013-07-24 23:26:00,59.9,54.7,29.98,NNE,24,1.0,3.0,83,0.00,,CLR,0.00,VWS V14.01,2013-07-25 03:26:00,
2013-07-24 23:30:00,59.8,54.6,29.98,NNE,20,0.0,4.0,83,0.00,,BKN037,0.00,VWS V14.01,2013-07-25 03:30:00,
2013-07-24 23:31:00,59.8,54.6,29.98,NNE,13,0.0,4.0,83,0.00,,CLR,0.00,VWS V14.01,2013-07-25 03:31:00,
2013-07-24 23:37:00,59.8,54.6,29.98,NNE,14,0.0,2.0,83,0.00,,CLR,0.00,VWS V14.01,2013-07-25 03:37:00,
2013-07-24 23:42:00,59.6,54.4,29.98,NNE,14,0.0,0.0,83,0.00,,CLR,0.00,VWS V14.01,2013-07-25 03:42:00,
2013-07-24 23:45:00,59.6,54.4,29.98,North,11,1.0,5.0,83,0.00,,BKN037,0.00,VWS V14.01,2013-07-25 03:45:00,
2013-07-24 23:47:00,59.5,54.3,29.98,North,11,0.0,5.0,83,0.00,,CLR,0.00,VWS V14.01,2013-07-25 03:47:00,
2013-07-24 23:53:00,59.3,54.5,29.98,NNE,18,0.0,5.0,84,0.00,,CLR,0.00,VWS V14.01,2013-07-25 03:53:00,
2013-07-24 23:58:00,59.3,54.5,29.98,NE,38,0.0,5.0,84,0.00,,CLR,0.00,VWS V14.01,2013-07-25 03:58:00,